www.pogodaiklimat.ru

Погода и климат >> Архив погоды >> Россия >> Чукотка >> Омолон


ПОГОДА в Омолоне

АРХИВ ПОГОДЫ в Омолоне

Время (UTC), дата Ветер
(напр.,м/с)
 
Видим.   Явления Облачность Т
(С)
Тd
(С)
f
(%)
Тe
(С)
Тes
(С)
Комфортность P
(гПа)
Po
(гПа)
Тmin
(С)
Tmax
(С)
R
(мм)
R24
(мм)
S
(см)
21 16.07 СЗ 4
{11}
50 км 9/4 1000 м
[Sc Ac trans]
+9.8 +5.1 73 +7 +8 1007.6 976.6 +9.4
00 17.07 СЗ 6
{11}
50 км 6/3 1000 м
[Cu Sc Ac trans]
+14.8 +5.3 53 +13 +15 1006.6 976.2
03 17.07 СЗ 5
{12}
50 км 8/4 1000 м
[Cu Sc Ac trans]
+15.0 +5.6 53 +14 +16 1005.5 975.1
06 17.07 СЗ 6
{12}
50 км 6/3 1000 м
[Sc Ac trans]
+15.1 +5.8 54 +14 +15 1004.9 974.5
09 17.07 СЗ 5
{11}
50 км ясно +11.9 +5.0 63 +10 +10 1005.3 974.5 +15.7
12 17.07 СЗ 3
{11}
50 км ясно +7.7 +3.4 74 +5 +5 1005.8 974.6
15 17.07 штиль 0
{5}
50 км ясно +2.8 +1.5 91 +2 +2 1005.8 974.1
18 17.07 штиль 0
{2}
50 км 10/10 600 м
[Sc]
+5.7 +3.8 88 +5 +5 1005.6 974.3
21 17.07 В 1
{3}
50 км 10/10 600 м
[Sc]
+8.3 +4.6 77 +8 +8 1004.9 973.8 +1.7
00 18.07 ЮВ 2
{3}
50 км 9/3 600 м
[Sc Ac trans]
+11.1 +5.9 70 +10 +14 1003.8 973.0
03 18.07 ЮВ 1
{4}
50 км 9/3 600 м
[Sc Ac trans Ci fib]
+13.0 +7.4 69 +13 +18 1002.9 972.3
06 18.07 В 2
{4}
50 км 9/4 600 м
[Sc Ac trans Ci fib]
+14.4 +8.5 68 +14 +16 1002.1 971.7
09 18.07 В 1
{4}
50 км 8/3 1000 м
[Sc Ac trans Ci fib]
+14.2 +5.8 57 +15 +15 1002.3 971.9 +14.8
12 18.07 штиль 0
{3}
50 км 6/0
[Ac trans Ci fib]
+9.2 +8.1 93 +8 +8 1003.0 972.0
15 18.07 В 2
{2}
50 км 8/0
[Ac trans Ci fib]
+9.6 +8.5 93 +8 +8 1002.6 971.7
18 18.07 В 1
{3}
50 км 9/0
[Ac trans Cs]
+9.9 +9.0 94 +9 +10 1002.2 971.4
21 18.07 В 2
{3}
50 км в посл. час дождь 9/3 600 м
[Sc Ac trans Ci fib]
+13.6 +11.5 87 +13 +15 1002.1 971.6 +8.4 0.3
00 19.07 Ю 3
{6}
50 км {дождь} 9/8 1000 м
[Sc Ac trans]
+17.9 +11.9 68 +18 +19 1000.7 970.9
03 19.07 Ю 2
{5}
50 км 9/9 1000 м
[Sc]
+18.4 +12.4 68 +19 +20 1001.0 971.2
06 19.07 Ю 1
{4}
50 км 10/10 1000 м
[Sc]
+18.1 +13.6 75 +19 +19 1001.6 971.7
09 19.07 С 1
{7}
50 км в посл. час дождь 10/8 800 м
[Sc As op]
+14.6 +13.9 96 +15 +15 1003.4 973.0 +18.7 2
12 19.07 штиль 0
{3}
50 км в посл. час дождь 10/8 600 м
[Sc As op]
+13.7 +13.2 97 +13 +13 1004.4 973.9
15 19.07 С 1
{2}
50 км 10/8 600 м
[Sc As op]
+12.7 +12.2 97 +13 +13 1005.2 974.5
18 19.07 штиль 0
{1}
800 м туман 10/10 600 м
[Sc]
+12.9 +12.5 97 +12 +12 1005.5 974.9
21 19.07 Ю 1
{3}
50 км {туман} 9/0
[Ac trans]
+17.0 +14.3 84 +18 +21 1005.8 975.7 +12.2 4
00 20.07 ЮВ 2
{7}
50 км {туман} 6/1 1000 м
[Cu hum Ac trans]
+21.0 +13.4 62 +24 +31 комфорт 1005.7 975.9
03 20.07 ЮВ 2
{6}
50 км 6/3 1000 м
[Cu hum Ac trans]
+25.6 +13.7 48 +28 +33 жарко 1004.4 975.1
06 20.07 СВ 1
{6}
50 км осадки на расстоянии 6/6 1000 м
[Cu med, cong]
+26.6 +13.0 43 +28 +30 жарко 1004.3 975.1
09 20.07 Ю 3
{7}
50 км ясно +24.4 +11.0 43 +26 +26 жарко 1004.5 975.1 +27.0
12 20.07 Ю 2
{6}
50 км 8/4 1000 м
[Sc diur, vesp Ac trans]
+19.5 +9.1 51 +21 +21 комфорт 1006.1 976.2
15 20.07 ЮВ 3
{6}
50 км 10/5 1000 м
[Sc Ac trans Ci fib]
+15.9 +8.1 60 +16 +16 1007.2 976.9
18 20.07 ЮВ 2
{6}
50 км 8/5 1000 м
[Sc Ac trans]
+14.1 +8.3 68 +14 +14 1008.7 978.1
21 20.07 ЮВ 3
{6}
50 км 4/0
[Ac trans]
+18.1 +9.7 58 +18 +22 1009.1 978.9 +12.9
00 21.07 Ю 4
{7}
50 км 8/3 600 м
[Cu hum Ci fib]
+22.5 +11.0 48 +25 +29 комфорт 1007.9 978.2
03 21.07 ЮВ 3
{8}
50 км 8/5 600 м
[Cu hum Ci fib]
+24.8 +9.9 39 +26 +29 жарко 1006.6 977.2
06 21.07 СЗ 1
{6}
50 км 9/4 600 м
[Cu hum Ac trans Ci fib]
+24.2 +10.5 42 +25 +27 комфорт 1006.6 977.2
09 21.07 З 1
{6}
50 км 9/3 1000 м
[Sc Ac trans Ci fib]
+19.4 +12.0 62 +22 +22 комфорт 1007.7 977.7 +25.8
12 21.07 ЮВ 1
{2}
50 км 8/3 1000 м
[Sc Ac trans Ci fib]
+14.5 +11.4 82 +15 +15 1008.4 977.9
15 21.07 СЗ 2
{4}
50 км 9/0
[Ac trans Ci fib]
+14.0 +12.6 91 +13 +13 1008.3 977.8
18 21.07 штиль 0
{4}
50 км 9/0
[Ac trans Ci fib]
+14.3 +12.6 90 +14 +15 1007.7 977.3
21 21.07 В 1
{2}
50 км 9/3 1000 м
[Sc Ac trans Ci fib]
+16.4 +13.4 82 +17 +20 1006.4 976.2 +12.5
00 22.07 ЮВ 2
{5}
50 км 9/3 1000 м
[Sc Ac trans Ci fib]
+19.8 +11.8 60 +22 +26 комфорт 1004.6 974.7
03 22.07 ЮВ 1
{5}
50 км 9/8 1000 м
[Sc Ac trans Ci fib]
+20.5 +11.4 56 +23 +25 комфорт 1002.3 972.6
06 22.07 С 2
{4}
50 км 10/8 1000 м
[Sc Ac trans Ci fib]
+19.5 +13.6 69 +22 +22 комфорт 1000.3 970.6
09 22.07 З 3
{5}
27 км слабый дождь 10/8 600 м
[Sc As op]
+15.4 +13.8 90 +15 +15 1000.0 969.8 +20.5 0.3
12 22.07 З 2
{5}
50 км {дождь} 10/8 1230 м
[Sc As op]
+14.1 +13.3 95 +14 +14 998.8 968.5
15 22.07 Ю 1
{4}
22 км слабый дождь 10/8 600 м
[Sc As op]
+13.0 +12.2 95 +13 +13 997.5 967.2
18 22.07 СЗ 2
{3}
23 км слабый дождь 10/8 600 м
[Sc As op]
+11.5 +10.9 96 +10 +10 996.8 966.3
21 22.07 З 3
{5}
8000 м слабая морось {дождь} 10/10 210 м
[St]
+10.6 +9.8 95 +8 +8 996.5 965.9 +10.5 20
00 23.07 З 3
{7}
21 км слабый дождь {морось} 10/10 270 м
[Frnb Ns]
+10.6 +9.8 95 +8 +8 996.5 965.9
03 23.07 З 5
{10}
50 км {дождь} 10/10 300 м
[Sc]
+10.9 +9.3 90 +8 +8 997.0 966.4
06 23.07 З 4
{10}
50 км {дождь} 10/10 200 м
[Sc]
+10.8 +8.9 88 +8 +8 998.5 967.9
09 23.07 З 3
{10}
50 км 10/10 600 м
[Sc]
+10.9 +8.6 86 +9 +9 1000.2 969.5 +11.6 2
12 23.07 ЮЗ 1
{6}
50 км 10/10 570 м
[Sc]
+9.6 +1.5 57 +9 +9 1001.5 970.7
15 23.07 ЮВ 2
{3}
50 км 10/10 600 м
[Sc]
+9.1 +8.2 94 +7 +7 1001.6 970.7
18 23.07 В 1
{3}
50 км 10/10 700 м
[Sc]
+10.0 +9.0 93 +9 +9 1001.2 970.4

 

Местоположение метеостанции Омолон (Чукотка, Россия): широта 65.23 долгота 160.50 высота над уровнем моря 260 м.

В архиве по умолчанию представлена погода в Омолоне за последнюю неделю. Архивные данные за месяц целиком и за предыдущие месяцы, начиная с января 2011 года, Вы можете получить, выбрав интересующий диапазон дат из раскрывающегося списка и нажав кнопку "Ввод!".

Внимание! Время в таблицах - всемирное. Для получения местного времени необходимо прибавить поправку, которая в Омолоне равна 12 ч.

Смотрите также архив погоды в соседних городах и на ближайших метеорологических станциях:

Погода в Кегали (Магаданская область, Россия) (112 км)
Погода в Верхне-Пенжино (Камчатский край, Россия) (209 км)
Погода в Баимке (Чукотка, Россия) (222 км)
Погода в Лабазной (Магаданская область, Россия) (235 км)
Погода в Коркодоне (Магаданская область, Россия) (315 км)
Погода в Константиновской (Чукотка, Россия) (326 км)
Погода в Балыгычане (Магаданская область, Россия) (339 км)
Погода в Анюйске (Чукотка, Россия) (350 км)
Погода на Островном (Чукотка, Россия) (358 км)
Погода в Эвенске (Магаданская область, Россия) (374 км)

Пояснения к столбцам:

Ветер - указаны скорость ветра в м/с - средняя за 10 мин, порывы в срок и между сроками (в фигурных скобках) и направление, откуда дует ветер: С - северный, СВ - северо-восточный, В - восточный, ЮВ - юго-восточный, Ю - южный, ЮЗ - юго-западный, З - западный, СЗ - северо-западный.
Видимость - горизонтальная дальность видимости в метрах или километрах. При видимости от 1 до 10 км при отсутствии осадков обычно наблюдается дымка, при ухудшении видимости до 1 км и менее - туман. В сухую погоду видимость может ухудшаться дымом, пылью или мглою.
Явления - указаны атмосферные явления, наблюдавшиеся в срок или в последний час перед сроком; фигурными скобками обозначены явления, наблюдавшиеся между сроками (за 1-3 часа до срока); квадратными скобками обозначены град или гололедные отложения с указанием их диаметра в мм.
Облачность - указаны через наклонную черту общая и нижняя облачность в баллах и высота нижней границы облаков в метрах; квадратными скобками обозначены формы облаков: Ci - перистые, Cs - перисто-слоистые, Cc - перисто-кучевые, Ac - высококучевые, As - высокослоистые, Sc - слоисто-кучевые, Ns - слоисто-дождевые, Cu - кучевые, Cb - кучево-дождевые. Подробнее классификацию облаков см. в Атласе облаков (PDF).
T - Температура воздуха - температура, измеренная на высоте 2 м над землей.
Td - Температура точки росы - температура, при понижении до которой содержащийся в воздухе водяной пар достигнет насыщения.
f - Относительная влажность воздуха - влажноcть воздуха, измеренная на высоте 2 м над землей.
Te - Эффективная температура - температура, которую ощущает одетый по сезону человек в тени. Характеристика душности погоды. При расчете учитывается влияние влажности воздуха и скорости ветра на теплоощущения человека.
Tes - Эффективная температура на солнце - температура, которую ощущает человек, с поправкой на солнечный нагрев. Характеристика знойности погоды. Зависит от высоты солнца над горизонтом, облачности и скорости ветра. Ночью, в пасмурную погоду, а также при ветре 12 м/с и более поправка равна нулю.
P - Атмосферное давление - приведенное к уровню моря атмосферное давление.
Po - Атмосферное давление - измеренное на уровне метеостанции атмосферное давление.
Tmin - Минимальная температура - минимум температуры воздуха на высоте 2 м над землей.
Tmax - Максимальная температура - максимум температуры воздуха на высоте 2 м над землей.
R - Количество осадков - Количество выпавших осадков за период времени, мм. При наведении курсора мыши на число - период времени, за который выпало указанное количество осадков.
R24 - Количество осадков - Количество выпавших осадков за 24 часа, мм.
S - Снежный покров - Высота снежного покрова, см. При наведении курсора мыши на число - состояние снежного покрова и степень покрытия местности в баллах.